FREGAT R/B, 63131

Orbit data source: Space-Track

FREGAT R/B, 63131 is space debris in MEO originally from a launch on Sun, 02 Mar 2025 UTC launched from the Plesetsk Missile And Space Complex (PKMTR). Debris objects in space refer to the collection of defunct objects orbiting the Earth. Examples of debris include non-operational satellites, rocket bodies, and fragments generated from explosions, collisions, or faulty payload assembly.

Loading next visibility...
Identifier
63131, 2025-042B
Orbit
MEO
Last TLE update
1 day ago
Origin
Manufacturer
Lavochkin
Mission
Spacecraft
Bus & Motor
FREGAT, Unknown motor
Mass
1,000 kg wet, 1,000 kg dry
Launch date (UTC)
2025-03-02 (4 months ago)
Launch vehicle
Unknown
Launch site
Plesetsk Missile And Space Complex (PKMTR)
Object type
Payload
Rocket body
Debris
Shape & HBR
Cyl, 3.35 m
Radar Cross Section
8.354 m², Large (>1 m²)

Expand to show TLE details & history

TLE from 1 day ago
0 FREGAT R/B
1 63131U 25042B   25185.99469683 -.00000053  00000-0  00000-0 0  9991
2 63131  64.8859  84.5987 0016724 196.1086 163.8753  2.13753747  2642
Epoch: 2025-07-04T23:52Z
TLE epoch observation values (Epoch: 2025-07-04T23:52:21.806Z)
Latitude
0.00006°
Longitude
163.28°
Altitude
19,119.506 km
Speed
3.951 km/s
True Right ascension
05h 38m 26s
True Declination
0° 00' 00"
Sunlit
Object was in daylight at epoch
Visualization orbit readout
Latitude
-3.02018°
Longitude
-15.34585°
Altitude
19,037.472 km
Speed
3.964 km/s
Apparent Right ascension
18h 07m 18s
Apparent Declination
-14° 23' 01"
Sunlit
Object is in daylight
Visualization observer readout
Local Sidereal Time
15:59:57
Azimuth
144.583° SSE
Elevation
28.149°
Doppler factor
1
Orbital elements
Apogee altitude
19,120.201 km
Perigee altitude
19,035.057 km
Semi-major axis
25,455.766 km
Eccentricity
0.00167
Inclination
64.8859°
RAAN
84.5987°
Arg. of periapsis
196.1086°
True anomaly
Unknown
Mean anomaly
163.8753°
Eccentric anomaly
Unknown
Mean motion
0.5344 °/min
Orbital period
673.66 mins
BSTAR
0
Loading maneuver chart data...
Loading SW <> Apogee altitude chart data...
Loading historical data...
Loading historical data...
Loading historical data...
Loading historical data...
Loading historical data...
Loading historical data...
Loading historical data...
Other satellites on launch #42 in the year 2025 (2025-03-02 UTC)

FREGAT R/B Visibility forecast

Observer location: undefined°, undefined°

Span
Click to sort rows by Start time (UTC) header in descending order
Start Az.
Max El. time (UTC)
Max El. Az.
Max El.
End time (UTC)
End Az.
37 mins2025-07-06 04:02:50.985Z144.601° SSE2025-07-06 04:02:50.985Z144.601° SSE25.242°2025-07-06 04:39:50.985Z153.616° SSE
372 mins2025-07-06 20:28:50.985Z232.572° WSW2025-07-06 23:33:50.985Z358.445° N40.049°2025-07-07 02:40:50.985Z125.98° SE
|